| time (UTC) | temp F | wind direction | speed MPH | gust MPH | rain 1hr in | rain 24hr in | rain mn in | humidity % | barometer mb |
| 20260902095517 | 65 | 0 | 4.0 | 7.0 | 0.00 | 0.00 | 0.00 | 64 | 1012.5 |
| 20260902094517 | 65 | 0 | 4.0 | 8.0 | 0.00 | 0.00 | 0.00 | 64 | 1012.4 |
| 20260902093517 | 64 | 0 | 3.0 | 6.0 | 0.00 | 0.00 | 0.00 | 64 | 1012.3 |
| 20260902092517 | 64 | 0 | 2.0 | 7.0 | 0.00 | 0.00 | 0.00 | 65 | 1012.2 |
| 20260902091517 | 65 | 0 | 2.0 | 6.0 | 0.00 | 0.00 | 0.00 | 65 | 1012.1 |
| 20260902090517 | 64 | 0 | 3.0 | 7.0 | 0.00 | 0.00 | 0.00 | 65 | 1012.1 |
| 20260902085517 | 64 | 0 | 2.0 | 9.0 | 0.00 | 0.00 | 0.00 | 66 | 1012.1 |
| 20260902084517 | 64 | 0 | 3.0 | 6.0 | 0.00 | 0.00 | 0.00 | 67 | 1012.0 |
| 20260902083517 | 64 | 0 | 2.0 | 5.0 | 0.00 | 0.00 | 0.00 | 66 | 1012.0 |
| 20260902082517 | 64 | 0 | 2.0 | 5.0 | 0.00 | 0.00 | 0.00 | 65 | 1012.2 |
| 20260902081517 | 64 | 0 | 2.0 | 5.0 | 0.00 | 0.00 | 0.00 | 65 | 1012.1 |
| 20260902080517 | 64 | 0 | 2.0 | 4.0 | 0.00 | 0.00 | 0.00 | 65 | 1012.0 |
| 20260902075537 | 64 | 0 | 2.0 | 6.0 | 0.00 | 0.00 | 0.00 | 65 | 1012.0 |
| 20260902074517 | 64 | 0 | 2.0 | 5.0 | 0.00 | 0.00 | 0.00 | 66 | 1011.8 |
| 20260902073516 | 64 | 0 | 1.0 | 3.0 | 0.00 | 0.00 | 0.00 | 66 | 1011.9 |
| 20260902072517 | 64 | 0 | 2.0 | 3.0 | 0.00 | 0.00 | 0.00 | 65 | 1011.8 |
| 20260902071516 | 64 | 0 | 2.0 | 6.0 | 0.00 | 0.00 | 0.00 | 66 | 1011.6 |
| 20260902070516 | 63 | 0 | 2.0 | 8.0 | 0.00 | 0.00 | 0.00 | 67 | 1011.8 |
| 20260902065516 | 63 | 0 | 2.0 | 6.0 | 0.00 | 0.00 | 0.00 | 68 | 1011.8 |
| 20260902064537 | 63 | 0 | 2.0 | 4.0 | 0.00 | 0.00 | 0.00 | 68 | 1012.0 |
| 20260902063517 | 63 | 315 | 1.0 | 4.0 | 0.00 | 0.00 | 0.00 | 67 | 1011.9 |
| 20260902062516 | 64 | 0 | 1.0 | 3.0 | 0.00 | 0.00 | 0.00 | 67 | 1011.9 |
| 20260902061537 | 64 | 0 | 2.0 | 3.0 | 0.00 | 0.00 | 0.00 | 66 | 1011.9 |
| 20260902060517 | 64 | 315 | 1.0 | 3.0 | 0.00 | 0.00 | 0.00 | 66 | 1011.9 |
| 20260902055517 | 64 | 0 | 2.0 | 6.0 | 0.00 | 0.00 | 0.00 | 67 | 1012.0 |
| 20260902054517 | 64 | 0 | 1.0 | 3.0 | 0.00 | 0.00 | 0.00 | 67 | 1011.9 |
| 20260902053516 | 64 | 0 | 2.0 | 4.0 | 0.00 | 0.00 | 0.00 | 66 | 1012.1 |
| 20260902052516 | 64 | 0 | 2.0 | 5.0 | 0.00 | 0.00 | 0.00 | 65 | 1012.3 |
| 20260902051557 | 65 | 315 | 2.0 | 6.0 | 0.00 | 0.00 | 0.00 | 65 | 1012.5 |
| 20260902050516 | 65 | 0 | 2.0 | 6.0 | 0.00 | 0.00 | 0.00 | 65 | 1012.4 |
| 20260902045516 | 64 | 0 | 2.0 | 4.0 | 0.00 | 0.00 | 0.00 | 65 | 1012.3 |
| 20260902044517 | 65 | 0 | 3.0 | 5.0 | 0.00 | 0.00 | 0.00 | 65 | 1012.2 |
| 20260902043516 | 65 | 0 | 2.0 | 5.0 | 0.00 | 0.00 | 0.00 | 65 | 1012.1 |
| 20260902042516 | 65 | 0 | 2.0 | 4.0 | 0.00 | 0.00 | 0.00 | 64 | 1011.9 |
| 20260902041516 | 65 | 0 | 2.0 | 5.0 | 0.00 | 0.00 | 0.00 | 64 | 1011.7 |
| 20260902040516 | 66 | 0 | 2.0 | 5.0 | 0.00 | 0.00 | 0.00 | 63 | 1011.8 |
| 20260902035517 | 66 | 0 | 1.0 | 3.0 | 0.00 | 0.00 | 0.00 | 63 | 1011.8 |
| 20260902034517 | 66 | 0 | 2.0 | 5.0 | 0.00 | 0.00 | 0.00 | 63 | 1011.9 |
| 20260902033516 | 66 | 0 | 2.0 | 5.0 | 0.00 | 0.00 | 0.00 | 64 | 1011.9 |
| 20260902032517 | 66 | 338 | 1.0 | 5.0 | 0.00 | 0.00 | 0.00 | 63 | 1011.9 |
| 20260902031516 | 66 | 0 | 2.0 | 5.0 | 0.00 | 0.00 | 0.00 | 63 | 1011.7 |
| 20260902030516 | 66 | 0 | 1.0 | 3.0 | 0.00 | 0.00 | 0.00 | 63 | 1011.7 |
| 20260902025516 | 66 | 338 | 1.0 | 3.0 | 0.00 | 0.00 | 0.00 | 63 | 1011.6 |
| 20260902024516 | 66 | 0 | 1.0 | 4.0 | 0.00 | 0.00 | 0.00 | 64 | 1011.5 |
| 20260902023516 | 66 | 0 | 1.0 | 2.0 | 0.00 | 0.00 | 0.00 | 63 | 1011.4 |
| 20260902022516 | 66 | 0 | 1.0 | 3.0 | 0.00 | 0.00 | 0.00 | 63 | 1011.3 |
| 20260902021516 | 66 | 338 | 1.0 | 3.0 | 0.00 | 0.00 | 0.00 | 63 | 1011.3 |
| 20260902020517 | 65 | 293 | 1.0 | 4.0 | 0.00 | 0.00 | 0.00 | 64 | 1011.2 |
| 20260902015516 | 65 | 315 | 1.0 | 3.0 | 0.00 | 0.00 | 0.00 | 65 | 1011.1 |
| 20260902014516 | 66 | 0 | 2.0 | 4.0 | 0.00 | 0.00 | 0.00 | 65 | 1010.9 |
| 20260902013516 | 66 | 23 | 1.0 | 2.0 | 0.00 | 0.00 | 0.00 | 65 | 1010.8 |
| 20260902012517 | 67 | 0 | 1.0 | 2.0 | 0.00 | 0.00 | 0.00 | 64 | 1010.8 |
| 20260902011516 | 67 | 0 | 2.0 | 4.0 | 0.00 | 0.00 | 0.00 | 63 | 1010.7 |
| 20260902010516 | 67 | 248 | 2.0 | 3.0 | 0.00 | 0.00 | 0.00 | 64 | 1010.5 |
| 20260902005536 | 68 | 248 | 2.0 | 3.0 | 0.00 | 0.00 | 0.00 | 63 | 1010.3 |
| 20260902004516 | 69 | 248 | 2.0 | 3.0 | 0.00 | 0.00 | 0.00 | 62 | 1010.3 |
| 20260902003516 | 70 | 248 | 2.0 | 3.0 | 0.00 | 0.00 | 0.00 | 61 | 1010.3 |
| 20260902002516 | 72 | 248 | 2.0 | 3.0 | 0.00 | 0.00 | 0.00 | 60 | 1010.4 |
| 20260902001516 | 73 | 248 | 1.0 | 3.0 | 0.00 | 0.00 | 0.00 | 57 | 1010.4 |
| 20260902000516 | 74 | 248 | 1.0 | 3.0 | 0.00 | 0.00 | 0.00 | 55 | 1010.4 |
| 20260901235516 | 75 | 248 | 1.0 | 2.0 | 0.00 | 0.00 | 0.00 | 51 | 1010.3 |
| 20260901234516 | 76 | 0 | 1.0 | 3.0 | 0.00 | 0.00 | 0.00 | 46 | 1010.2 |
| 20260901233516 | 77 | 0 | 1.0 | 3.0 | 0.00 | 0.00 | 0.00 | 45 | 1010.1 |
| 20260901232516 | 77 | 0 | 1.0 | 4.0 | 0.00 | 0.00 | 0.00 | 45 | 1010.0 |
| 20260901231516 | 78 | 0.0 | 2.0 | 0.00 | 0.00 | 0.00 | 42 | 1009.8 | |
| 20260901230516 | 78 | 0.0 | 2.0 | 0.00 | 0.00 | 0.00 | 41 | 1009.8 | |
| 20260901225516 | 79 | 0 | 2.0 | 5.0 | 0.00 | 0.00 | 0.00 | 39 | 1009.9 |
| 20260901224516 | 80 | 0 | 2.0 | 5.0 | 0.00 | 0.00 | 0.00 | 37 | 1009.9 |
| 20260901223516 | 80 | 0 | 3.0 | 9.0 | 0.00 | 0.00 | 0.00 | 35 | 1009.7 |
| 20260901222516 | 81 | 0 | 2.0 | 6.0 | 0.00 | 0.00 | 0.00 | 35 | 1009.8 |
| 20260901221516 | 82 | 0 | 3.0 | 10.0 | 0.00 | 0.00 | 0.00 | 34 | 1009.8 |
| 20260901220536 | 82 | 0 | 2.0 | 7.0 | 0.00 | 0.00 | 0.00 | 34 | 1009.7 |
| 20260901215516 | 83 | 0 | 4.0 | 11.0 | 0.00 | 0.00 | 0.00 | 34 | 1009.8 |
| 20260901214536 | 83 | 0 | 2.0 | 6.0 | 0.00 | 0.00 | 0.00 | 34 | 1009.8 |
| 20260901213516 | 82 | 0 | 3.0 | 11.0 | 0.00 | 0.00 | 0.00 | 33 | 1009.9 |
| 20260901212536 | 82 | 0 | 2.0 | 11.0 | 0.00 | 0.00 | 0.00 | 34 | 1009.8 |
| 20260901211516 | 83 | 0 | 4.0 | 16.0 | 0.00 | 0.00 | 0.00 | 32 | 1009.7 |
| 20260901210516 | 83 | 0 | 5.0 | 14.0 | 0.00 | 0.00 | 0.00 | 32 | 1009.7 |
| 20260901205516 | 83 | 0 | 5.0 | 17.0 | 0.00 | 0.00 | 0.00 | 32 | 1009.7 |
| 20260901204516 | 83 | 0 | 6.0 | 13.0 | 0.00 | 0.00 | 0.00 | 32 | 1009.7 |
| 20260901203516 | 83 | 0 | 4.0 | 12.0 | 0.00 | 0.00 | 0.00 | 33 | 1009.7 |
| 20260901202516 | 83 | 0 | 4.0 | 11.0 | 0.00 | 0.00 | 0.00 | 32 | 1009.7 |
| 20260901201536 | 83 | 0 | 3.0 | 5.0 | 0.00 | 0.00 | 0.00 | 34 | 1009.7 |
| 20260901200516 | 83 | 0 | 3.0 | 10.0 | 0.00 | 0.00 | 0.00 | 34 | 1009.7 |
| 20260901195516 | 84 | 0 | 3.0 | 10.0 | 0.00 | 0.00 | 0.00 | 33 | 1009.8 |
| 20260901194516 | 85 | 0 | 4.0 | 10.0 | 0.00 | 0.00 | 0.00 | 32 | 1009.9 |
| 20260901193516 | 83 | 0 | 3.0 | 9.0 | 0.00 | 0.00 | 0.00 | 35 | 1009.9 |
| 20260901192515 | 79 | 0 | 5.0 | 13.0 | 0.00 | 0.00 | 0.00 | 41 | 1009.9 |
| 20260901191516 | 75 | 0 | 5.0 | 15.0 | 0.00 | 0.00 | 0.00 | 58 | 1009.9 |
| 20260901190515 | 69 | 0 | 5.0 | 11.0 | 0.00 | 0.00 | 0.00 | 71 | 1009.9 |
| 20260901185536 | 69 | 0 | 8.0 | 14.0 | 0.00 | 0.00 | 0.00 | 70 | 1010.2 |
| 20260901184515 | 72 | 0 | 5.0 | 13.0 | 0.00 | 0.00 | 0.00 | 66 | 1010.3 |
| 20260901183515 | 71 | 0 | 4.0 | 15.0 | 0.00 | 0.00 | 0.00 | 67 | 1010.2 |
| 20260901182515 | 69 | 0 | 8.0 | 13.0 | 0.00 | 0.00 | 0.00 | 71 | 1010.3 |
| 20260901181515 | 69 | 0 | 8.0 | 16.0 | 0.00 | 0.00 | 0.00 | 71 | 1010.3 |
| 20260901180515 | 69 | 0 | 6.0 | 13.0 | 0.00 | 0.00 | 0.00 | 70 | 1010.3 |
| 20260901175515 | 70 | 0 | 5.0 | 11.0 | 0.00 | 0.00 | 0.00 | 68 | 1010.4 |
| 20260901174517 | 68 | 0 | 8.0 | 14.0 | 0.00 | 0.00 | 0.00 | 71 | 1010.2 |
| 20260901173537 | 68 | 0 | 7.0 | 14.0 | 0.00 | 0.00 | 0.00 | 71 | 1010.4 |
| 20260901172517 | 68 | 0 | 8.0 | 18.0 | 0.00 | 0.00 | 0.00 | 73 | 1010.5 |
| 20260901171515 | 67 | 0 | 8.0 | 13.0 | 0.00 | 0.00 | 0.00 | 74 | 1010.6 |
| 20260901170537 | 68 | 0 | 9.0 | 14.0 | 0.00 | 0.00 | 0.00 | 72 | 1010.6 |
| 20260901165517 | 68 | 0 | 7.0 | 15.0 | 0.00 | 0.00 | 0.00 | 72 | 1011.1 |
| 20260901164518 | 68 | 0 | 8.0 | 15.0 | 0.00 | 0.00 | 0.00 | 72 | 1011.2 |
| 20260901163557 | 68 | 0 | 8.0 | 16.0 | 0.00 | 0.00 | 0.00 | 73 | 1011.4 |
| 20260901162557 | 67 | 0 | 10.0 | 18.0 | 0.00 | 0.00 | 0.00 | 74 | 1011.4 |
| 20260901161517 | 67 | 0 | 9.0 | 15.0 | 0.00 | 0.00 | 0.00 | 74 | 1011.5 |
| 20260901160517 | 67 | 0 | 9.0 | 17.0 | 0.00 | 0.00 | 0.00 | 74 | 1011.6 |
| 20260901155517 | 66 | 0 | 8.0 | 19.0 | 0.00 | 0.00 | 0.00 | 74 | 1011.5 |
| 20260901154517 | 67 | 0 | 7.0 | 13.0 | 0.00 | 0.00 | 0.00 | 74 | 1011.5 |
| 20260901153517 | 66 | 0 | 8.0 | 13.0 | 0.00 | 0.00 | 0.00 | 75 | 1011.4 |
| 20260901152517 | 66 | 0 | 8.0 | 15.0 | 0.00 | 0.00 | 0.00 | 76 | 1011.3 |
| 20260901151517 | 66 | 0 | 6.0 | 13.0 | 0.00 | 0.00 | 0.00 | 76 | 1011.4 |
| 20260901150517 | 65 | 0 | 7.0 | 12.0 | 0.00 | 0.00 | 0.00 | 77 | 1011.4 |
| 20260901145517 | 65 | 0 | 5.0 | 10.0 | 0.00 | 0.00 | 0.00 | 77 | 1011.4 |
| 20260901144517 | 65 | 0 | 8.0 | 12.0 | 0.00 | 0.00 | 0.00 | 76 | 1011.3 |
| 20260901143517 | 65 | 0 | 7.0 | 12.0 | 0.00 | 0.00 | 0.00 | 76 | 1011.2 |
| 20260901142517 | 66 | 0 | 8.0 | 14.0 | 0.00 | 0.00 | 0.00 | 73 | 1011.2 |
| 20260901141517 | 67 | 0 | 9.0 | 15.0 | 0.00 | 0.00 | 0.00 | 71 | 1011.0 |
| 20260901140517 | 69 | 0 | 4.0 | 10.0 | 0.00 | 0.00 | 0.00 | 67 | 1011.0 |
| 20260901135517 | 70 | 0 | 6.0 | 12.0 | 0.00 | 0.00 | 0.00 | 63 | 1011.3 |
| 20260901134517 | 73 | 0 | 2.0 | 6.0 | 0.00 | 0.00 | 0.00 | 62 | 1011.4 |
| 20260901133517 | 72 | 0 | 2.0 | 8.0 | 0.00 | 0.00 | 0.00 | 63 | 1011.3 |
| 20260901132517 | 71 | 0 | 3.0 | 12.0 | 0.00 | 0.00 | 0.00 | 64 | 1011.1 |
| 20260901131517 | 70 | 0 | 5.0 | 12.0 | 0.00 | 0.00 | 0.00 | 65 | 1011.1 |
| 20260901130517 | 69 | 0 | 6.0 | 15.0 | 0.00 | 0.00 | 0.00 | 66 | 1011.0 |
| 20260901125517 | 68 | 0 | 4.0 | 12.0 | 0.00 | 0.00 | 0.00 | 68 | 1010.9 |
| 20260901124517 | 67 | 0 | 4.0 | 11.0 | 0.00 | 0.00 | 0.00 | 70 | 1010.9 |
| 20260901123517 | 66 | 0 | 4.0 | 10.0 | 0.00 | 0.00 | 0.00 | 72 | 1010.9 |
| 20260901122517 | 66 | 0 | 4.0 | 15.0 | 0.00 | 0.00 | 0.00 | 73 | 1010.8 |
| 20260901121537 | 65 | 0 | 5.0 | 14.0 | 0.00 | 0.00 | 0.00 | 76 | 1010.8 |
| 20260901120517 | 64 | 0 | 4.0 | 12.0 | 0.00 | 0.00 | 0.00 | 78 | 1010.6 |
| 20260901115517 | 63 | 0 | 5.0 | 11.0 | 0.00 | 0.00 | 0.00 | 82 | 1010.6 |
| 20260901114517 | 61 | 0 | 5.0 | 10.0 | 0.00 | 0.01 | 0.00 | 88 | 1010.6 |
| 20260901113537 | 60 | 0 | 4.0 | 15.0 | 0.00 | 0.01 | 0.00 | 88 | 1010.5 |
| 20260901112517 | 59 | 0 | 4.0 | 10.0 | 0.00 | 0.02 | 0.00 | 88 | 1010.4 |
| 20260901111537 | 58 | 0 | 3.0 | 8.0 | 0.00 | 0.02 | 0.00 | 88 | 1010.5 |
| 20260901110517 | 56 | 0.0 | 2.0 | 0.00 | 0.02 | 0.00 | 88 | 1010.4 | |
| 20260901105517 | 56 | 0.0 | 2.0 | 0.00 | 0.02 | 0.00 | 88 | 1010.4 | |
| 20260901104517 | 56 | 0.0 | 0.0 | 0.00 | 0.02 | 0.00 | 88 | 1010.3 | |
| 20260901103516 | 56 | 0 | 1.0 | 2.0 | 0.00 | 0.02 | 0.00 | 88 | 1010.4 |
| 20260901102516 | 55 | 0 | 1.0 | 2.0 | 0.00 | 0.02 | 0.00 | 88 | 1010.4 |
| 20260901101516 | 55 | 0 | 1.0 | 2.0 | 0.00 | 0.02 | 0.00 | 88 | 1010.3 |
| 20260901100517 | 55 | 0.0 | 0.0 | 0.00 | 0.02 | 0.00 | 88 | 1010.4 |